Pocatello, ID

8:52 PM MST on December 09, 2016 (GMT -0700)
Pocatello Regional

Weather History for KPIH - March, 2013

Change the Weather History Date:

Thursday, March 7, 2013

  Actual Average Record
Temperature  
Mean Temperature 36 °F 35 °F  
Max Temperature 43 °F 46 °F 61 °F (2015)
Min Temperature 28 °F 25 °F -1 °F (1964)
Degree Days  
Heating Degree Days 29 30  
Month to date heating degree days 201 217  
Since 1 July heating degree days 5312 5490  
Cooling Degree Days 0 0  
Month to date cooling degree days 0 0  
Year to date cooling degree days 0 0  
Moisture  
Dew Point 24 °F    
Average Humidity 62    
Maximum Humidity 78    
Minimum Humidity 45    
Precipitation  
Precipitation 0.00 in 0.04 in 0.32 in (1943)
Month to date precipitation 0.29 0.29  
Year to date precipitation 1.37 2.25  
Snow  
Snow 0.00 in - - ()
Month to date snowfall 0.2  
Since 1 July snowfall 33.8  
Snow Depth T in    
Sea Level Pressure  
Sea Level Pressure 30.01 in    
Wind  
Wind Speed 6 mph (NE)    
Max Wind Speed 14 mph    
Max Gust Speed 17 mph    
Visibility 10 miles    
Events      
T = Trace of Precipitation, MM = Missing Value Source: NWS Daily Summary

Daily Weather History Graph

Daily Weather History Graph

Search for Another Location

Airport or City:

Trip Planner

Search our weather history database for the weather conditions in past years. The results will help you decide how hot, cold, wet, or windy it might be!

Date:

Astronomy

Mar. 07, 2013 Rise Set
Actual Time 6:55 AM MST 6:27 PM MST
Civil Twilight 6:27 AM MST 6:55 PM MST
Nautical Twilight 5:54 AM MST 7:28 PM MST
Astronomical Twilight 5:21 AM MST 8:01 PM MST
Moon 4:03 AM MST (3/7) 2:14 PM MST (3/7)
Length of Visible Light 12h 28m
Length of Day
11h 31m
Waning Crescent, 19% of the Moon is Illuminated
Mar 7
Waning Crescent
Mar 11
New
Mar 19
First Quarter
Mar 27
Full
Apr 2
Last Quarter

Hourly Weather History & Observations

Time (MST) Temp. Windchill Dew Point Humidity Pressure Visibility Wind Dir Wind Speed Gust Speed Precip Events Conditions
12:53 AM 32.0 °F 25.6 °F 23.0 °F 69% 29.97 in 10.0 mi SSW 6.9 mph - N/A   Clear
1:53 AM 33.1 °F 26.1 °F 21.9 °F 64% 29.98 in 10.0 mi SSW 8.1 mph - N/A   Clear
2:53 AM 28.9 °F 22.8 °F 21.9 °F 75% 30.00 in 10.0 mi South 5.8 mph - N/A   Clear
3:53 AM 28.9 °F 21.1 °F 21.9 °F 75% 30.04 in 10.0 mi South 8.1 mph - N/A   Clear
4:53 AM 30.9 °F 24.3 °F 21.9 °F 69% 30.03 in 10.0 mi South 6.9 mph - N/A   Clear
5:53 AM 30.9 °F 26.2 °F 23.0 °F 72% 30.05 in 10.0 mi SSW 4.6 mph - N/A   Scattered Clouds
6:53 AM 30.0 °F - 23.0 °F 75% 30.06 in 10.0 mi Calm Calm - N/A   Scattered Clouds
7:53 AM 30.0 °F 25.2 °F 24.1 °F 79% 30.07 in 10.0 mi East 4.6 mph - N/A   Scattered Clouds
8:53 AM 33.1 °F 30.0 °F 26.1 °F 75% 30.08 in 10.0 mi North 3.5 mph - N/A   Scattered Clouds
9:53 AM 35.1 °F 32.2 °F 24.1 °F 64% 30.07 in 10.0 mi North 3.5 mph - N/A   Partly Cloudy
10:53 AM 37.9 °F - 25.0 °F 60% 30.06 in 10.0 mi Calm Calm - N/A   Partly Cloudy
11:53 AM 39.0 °F 35.7 °F 25.0 °F 57% 30.06 in 10.0 mi East 4.6 mph - N/A   Scattered Clouds
12:53 PM 41.0 °F 37.1 °F 21.9 °F 47% 30.03 in 10.0 mi NNE 5.8 mph - N/A   Clear
1:53 PM 41.0 °F 35.8 °F 23.0 °F 49% 30.00 in 10.0 mi NNE 8.1 mph - N/A   Partly Cloudy
2:53 PM 42.1 °F 36.1 °F 23.0 °F 47% 30.00 in 10.0 mi NNE 10.4 mph - N/A   Overcast
3:53 PM 42.1 °F 36.1 °F 24.1 °F 49% 29.99 in 10.0 mi NNE 10.4 mph - N/A   Scattered Clouds
4:53 PM 41.0 °F 33.9 °F 25.0 °F 53% 29.98 in 10.0 mi NE 12.7 mph - N/A   Overcast
5:53 PM 37.9 °F 30.0 °F 25.0 °F 60% 29.99 in 10.0 mi NNE 12.7 mph - N/A   Overcast
6:53 PM 37.0 °F 30.4 °F 25.0 °F 62% 29.99 in 10.0 mi NE 9.2 mph - N/A   Overcast
7:53 PM 34.0 °F 28.0 °F 26.1 °F 73% 30.01 in 10.0 mi NNE 6.9 mph - N/A   Mostly Cloudy
8:53 PM 33.1 °F 28.7 °F 26.1 °F 75% 30.00 in 10.0 mi NNE 4.6 mph - N/A   Mostly Cloudy
9:53 PM 32.0 °F 27.5 °F 26.1 °F 79% 29.99 in 10.0 mi NE 4.6 mph - N/A   Clear
10:53 PM 32.0 °F 28.7 °F 27.0 °F 82% 29.97 in 10.0 mi NNE 3.5 mph - N/A   Partly Cloudy
11:53 PM 32.0 °F 28.7 °F 28.0 °F 85% 29.96 in 10.0 mi NNE 3.5 mph - N/A   Overcast